Time,TemperatureF,DewpointF,PressureIn,WindDirection,WindDirectionDegrees,WindSpeedMPH,WindSpeedGustMPH,Humidity,HourlyPrecipIn,Conditions,Clouds,dailyrainin,SoftwareType,DateUTC
2013-07-26 00:08:00,50.3,49.0,29.98,NW,321,0.0,-999.0,96,-99.99,,,0.00,weatherlink.com 1.10,2013-07-26 07:08:00,
2013-07-26 00:23:00,50.3,49.0,29.98,NW,321,0.0,-999.0,96,-99.99,,,0.00,weatherlink.com 1.10,2013-07-26 07:23:00,
2013-07-26 00:38:00,50.3,49.0,29.98,NW,321,0.0,-999.0,96,-99.99,,,0.00,weatherlink.com 1.10,2013-07-26 07:38:00,
2013-07-26 00:53:00,50.4,49.0,29.98,NW,321,0.0,-999.0,96,-99.99,,,0.00,weatherlink.com 1.10,2013-07-26 07:53:00,
2013-07-26 01:08:00,50.3,49.0,29.98,NW,321,0.0,-999.0,96,-99.99,,,0.00,weatherlink.com 1.10,2013-07-26 08:08:00,
2013-07-26 01:23:00,50.2,49.0,29.97,NW,321,1.0,-999.0,96,-99.99,,,0.00,weatherlink.com 1.10,2013-07-26 08:23:00,
2013-07-26 01:37:00,50.1,49.0,29.97,NW,321,0.0,-999.0,96,-99.99,,,0.00,weatherlink.com 1.10,2013-07-26 08:37:00,
2013-07-26 01:53:00,50.0,49.0,29.97,NW,321,0.0,-999.0,96,-99.99,,,0.00,weatherlink.com 1.10,2013-07-26 08:53:00,
2013-07-26 02:08:00,50.0,49.0,29.97,NW,321,0.0,-999.0,96,-99.99,,,0.00,weatherlink.com 1.10,2013-07-26 09:08:00,
2013-07-26 02:24:00,49.9,49.0,29.97,NW,321,0.0,-999.0,96,-99.99,,,0.00,weatherlink.com 1.10,2013-07-26 09:24:00,
2013-07-26 02:38:00,49.8,49.0,29.97,NW,321,0.0,-999.0,96,-99.99,,,0.00,weatherlink.com 1.10,2013-07-26 09:38:00,
2013-07-26 02:53:00,49.8,49.0,29.96,NW,321,0.0,-999.0,96,-99.99,,,0.00,weatherlink.com 1.10,2013-07-26 09:53:00,
2013-07-26 03:08:00,49.7,49.0,29.97,NW,321,0.0,-999.0,96,-99.99,,,0.00,weatherlink.com 1.10,2013-07-26 10:08:00,
2013-07-26 03:23:00,49.6,49.0,29.97,NW,321,0.0,-999.0,96,-99.99,,,0.00,weatherlink.com 1.10,2013-07-26 10:23:00,
2013-07-26 03:38:00,49.7,49.0,29.97,NW,321,0.0,-999.0,96,-99.99,,,0.00,weatherlink.com 1.10,2013-07-26 10:38:00,
2013-07-26 03:53:00,49.7,49.0,29.97,NW,321,1.0,-999.0,96,-99.99,,,0.00,weatherlink.com 1.10,2013-07-26 10:53:00,
2013-07-26 04:07:00,49.6,49.0,29.97,NW,321,0.0,-999.0,96,-99.99,,,0.00,weatherlink.com 1.10,2013-07-26 11:07:00,
2013-07-26 04:22:00,49.5,48.0,29.96,NW,321,0.0,-999.0,96,-99.99,,,0.00,weatherlink.com 1.10,2013-07-26 11:22:00,
2013-07-26 04:39:00,49.1,48.0,29.97,NW,321,0.0,-999.0,96,-99.99,,,0.00,weatherlink.com 1.10,2013-07-26 11:39:00,
2013-07-26 04:54:00,48.6,48.0,29.97,NW,321,0.0,-999.0,96,-99.99,,,0.00,weatherlink.com 1.10,2013-07-26 11:54:00,
2013-07-26 05:08:00,48.6,48.0,29.97,NW,321,0.0,-999.0,96,-99.99,,,0.00,weatherlink.com 1.10,2013-07-26 12:08:00,
2013-07-26 05:22:00,48.8,48.0,29.98,NW,321,2.0,-999.0,96,-99.99,,,0.00,weatherlink.com 1.10,2013-07-26 12:22:00,
2013-07-26 05:38:00,48.9,48.0,29.98,NW,321,1.0,-999.0,96,-99.99,,,0.00,weatherlink.com 1.10,2013-07-26 12:38:00,
2013-07-26 05:52:00,49.0,48.0,29.99,NW,321,1.0,-999.0,96,-99.99,,,0.00,weatherlink.com 1.10,2013-07-26 12:52:00,
2013-07-26 06:07:00,49.0,48.0,30.00,NW,321,2.0,-999.0,96,-99.99,,,0.00,weatherlink.com 1.10,2013-07-26 13:07:00,
2013-07-26 06:22:00,49.0,48.0,30.00,NW,323,3.0,-999.0,96,-99.99,,,0.00,weatherlink.com 1.10,2013-07-26 13:22:00,
2013-07-26 06:37:00,49.0,48.0,30.00,NNW,333,1.0,-999.0,96,-99.99,,,0.00,weatherlink.com 1.10,2013-07-26 13:37:00,
2013-07-26 06:53:00,49.2,48.0,30.00,NE,35,0.0,-999.0,96,-99.99,,,0.00,weatherlink.com 1.10,2013-07-26 13:53:00,
2013-07-26 07:08:00,49.5,48.0,30.01,NE,43,3.0,-999.0,96,-99.99,,,0.00,weatherlink.com 1.10,2013-07-26 14:08:00,
2013-07-26 07:23:00,49.9,49.0,30.01,ENE,67,0.0,-999.0,96,-99.99,,,0.00,weatherlink.com 1.10,2013-07-26 14:23:00,
2013-07-26 07:38:00,49.9,49.0,30.02,SE,134,0.0,-999.0,96,-99.99,,,0.00,weatherlink.com 1.10,2013-07-26 14:38:00,
2013-07-26 07:53:00,50.0,49.0,30.03,SSE,154,2.0,-999.0,96,-99.99,,,0.00,weatherlink.com 1.10,2013-07-26 14:53:00,
2013-07-26 08:08:00,50.9,50.0,30.03,SSW,207,0.0,-999.0,97,-99.99,,,0.00,weatherlink.com 1.10,2013-07-26 15:08:00,
2013-07-26 08:23:00,52.0,51.0,30.04,SE,127,0.0,-999.0,97,-99.99,,,0.00,weatherlink.com 1.10,2013-07-26 15:23:00,
2013-07-26 08:38:00,52.2,51.0,30.04,SSW,212,2.0,-999.0,96,-99.99,,,0.00,weatherlink.com 1.10,2013-07-26 15:38:00,
2013-07-26 08:53:00,51.9,51.0,30.04,SSW,205,2.0,-999.0,96,-99.99,,,0.00,weatherlink.com 1.10,2013-07-26 15:53:00,
2013-07-26 09:08:00,52.7,52.0,30.04,SSW,205,0.0,-999.0,97,-99.99,,,0.00,weatherlink.com 1.10,2013-07-26 16:08:00,
2013-07-26 09:22:00,52.7,52.0,30.04,SSW,198,1.0,-999.0,96,-99.99,,,0.00,weatherlink.com 1.10,2013-07-26 16:22:00,
2013-07-26 09:38:00,53.2,52.0,30.04,SSW,209,5.0,-999.0,97,-99.99,,,0.00,weatherlink.com 1.10,2013-07-26 16:38:00,
2013-07-26 09:53:00,53.4,52.0,30.04,SSW,209,7.0,-999.0,96,-99.99,,,0.00,weatherlink.com 1.10,2013-07-26 16:53:00,
2013-07-26 10:08:00,53.3,52.0,30.04,SSW,204,5.0,-999.0,96,-99.99,,,0.00,weatherlink.com 1.10,2013-07-26 17:08:00,
2013-07-26 10:23:00,53.2,52.0,30.05,SSW,202,7.0,-999.0,96,-99.99,,,0.00,weatherlink.com 1.10,2013-07-26 17:23:00,
2013-07-26 10:38:00,53.5,52.0,30.04,SSW,207,5.0,-999.0,96,-99.99,,,0.00,weatherlink.com 1.10,2013-07-26 17:38:00,
2013-07-26 10:52:00,53.7,52.0,30.04,SSW,202,8.0,-999.0,95,-99.99,,,0.00,weatherlink.com 1.10,2013-07-26 17:52:00,
2013-07-26 11:08:00,53.9,53.0,30.04,SSW,199,6.0,-999.0,95,-99.99,,,0.00,weatherlink.com 1.10,2013-07-26 18:08:00,
2013-07-26 11:22:00,54.5,53.0,30.04,SSW,199,5.0,-999.0,93,-99.99,,,0.00,weatherlink.com 1.10,2013-07-26 18:22:00,
2013-07-26 11:37:00,55.3,53.0,30.04,SSW,207,8.0,-999.0,92,-99.99,,,0.00,weatherlink.com 1.10,2013-07-26 18:37:00,
2013-07-26 11:54:00,56.6,54.0,30.04,SSW,203,2.0,-999.0,90,-99.99,,,0.00,weatherlink.com 1.10,2013-07-26 18:54:00,
2013-07-26 12:08:00,57.4,54.0,30.04,SSW,206,4.0,-999.0,87,-99.99,,,0.00,weatherlink.com 1.10,2013-07-26 19:08:00,
2013-07-26 12:24:00,58.5,54.0,30.04,SSW,205,8.0,-999.0,86,-99.99,,,0.00,weatherlink.com 1.10,2013-07-26 19:24:00,
2013-07-26 12:39:00,58.5,54.0,30.04,SSW,206,7.0,-999.0,84,-99.99,,,0.00,weatherlink.com 1.10,2013-07-26 19:39:00,
2013-07-26 12:52:00,59.1,55.0,30.04,SSW,207,7.0,-999.0,85,-99.99,,,0.00,weatherlink.com 1.10,2013-07-26 19:52:00,
2013-07-26 13:08:00,59.2,54.0,30.04,SSW,203,6.0,-999.0,84,-99.99,,,0.00,weatherlink.com 1.10,2013-07-26 20:08:00,
2013-07-26 13:23:00,59.1,54.0,30.04,SW,214,8.0,-999.0,82,-99.99,,,0.00,weatherlink.com 1.10,2013-07-26 20:23:00,
2013-07-26 13:38:00,59.4,54.0,30.04,SSW,206,10.0,-999.0,82,-99.99,,,0.00,weatherlink.com 1.10,2013-07-26 20:38:00,
2013-07-26 13:52:00,58.8,54.0,30.04,SSW,197,5.0,-999.0,83,-99.99,,,0.00,weatherlink.com 1.10,2013-07-26 20:52:00,
2013-07-26 14:09:00,58.1,53.0,30.03,SSW,192,4.0,-999.0,83,-99.99,,,0.00,weatherlink.com 1.10,2013-07-26 21:09:00,
2013-07-26 14:24:00,57.9,53.0,30.04,SSW,207,6.0,-999.0,84,-99.99,,,0.00,weatherlink.com 1.10,2013-07-26 21:24:00,
2013-07-26 14:38:00,58.7,53.0,30.03,WSW,244,3.0,-999.0,82,-99.99,,,0.00,weatherlink.com 1.10,2013-07-26 21:38:00,
2013-07-26 14:52:00,57.9,53.0,30.03,WSW,241,4.0,-999.0,83,-99.99,,,0.00,weatherlink.com 1.10,2013-07-26 21:52:00,
2013-07-26 15:07:00,58.3,54.0,30.02,WSW,246,4.0,-999.0,84,-99.99,,,0.00,weatherlink.com 1.10,2013-07-26 22:07:00,
2013-07-26 15:22:00,58.3,54.0,30.02,WSW,253,5.0,-999.0,84,-99.99,,,0.00,weatherlink.com 1.10,2013-07-26 22:22:00,
2013-07-26 15:39:00,58.0,53.0,30.02,WSW,241,3.0,-999.0,84,-99.99,,,0.00,weatherlink.com 1.10,2013-07-26 22:39:00,
2013-07-26 15:53:00,58.1,53.0,30.02,WSW,243,5.0,-999.0,83,-99.99,,,0.00,weatherlink.com 1.10,2013-07-26 22:53:00,
2013-07-26 16:07:00,57.8,53.0,30.02,WSW,252,3.0,-999.0,84,-99.99,,,0.00,weatherlink.com 1.10,2013-07-26 23:07:00,
2013-07-26 16:22:00,56.9,52.0,30.01,West,267,4.0,-999.0,84,-99.99,,,0.00,weatherlink.com 1.10,2013-07-26 23:22:00,
2013-07-26 16:37:00,56.6,53.0,30.00,West,272,4.0,-999.0,86,-99.99,,,0.00,weatherlink.com 1.10,2013-07-26 23:37:00,
2013-07-26 16:53:00,56.3,52.0,30.00,WSW,257,2.0,-999.0,86,-99.99,,,0.00,weatherlink.com 1.10,2013-07-26 23:53:00,
2013-07-26 17:09:00,55.9,52.0,30.00,West,266,3.0,-999.0,87,-99.99,,,0.00,weatherlink.com 1.10,2013-07-27 00:09:00,
2013-07-26 17:23:00,56.0,53.0,30.00,West,265,6.0,-999.0,88,-99.99,,,0.00,weatherlink.com 1.10,2013-07-27 00:23:00,
2013-07-26 17:38:00,56.3,52.0,29.99,West,276,0.0,-999.0,86,-99.99,,,0.00,weatherlink.com 1.10,2013-07-27 00:38:00,
2013-07-26 17:52:00,55.5,52.0,29.99,NW,306,7.0,-999.0,88,-99.99,,,0.00,weatherlink.com 1.10,2013-07-27 00:52:00,
2013-07-26 18:08:00,55.4,52.0,29.98,West,278,5.0,-999.0,89,-99.99,,,0.00,weatherlink.com 1.10,2013-07-27 01:08:00,
2013-07-26 18:23:00,54.8,52.0,29.98,NW,316,5.0,-999.0,90,-99.99,,,0.00,weatherlink.com 1.10,2013-07-27 01:23:00,
2013-07-26 18:37:00,55.3,52.0,29.98,NW,306,6.0,-999.0,89,-99.99,,,0.00,weatherlink.com 1.10,2013-07-27 01:37:00,
2013-07-26 18:52:00,55.2,52.0,29.98,NW,318,2.0,-999.0,89,-99.99,,,0.00,weatherlink.com 1.10,2013-07-27 01:52:00,
2013-07-26 19:07:00,54.3,52.0,29.98,WNW,299,4.0,-999.0,90,-99.99,,,0.00,weatherlink.com 1.10,2013-07-27 02:07:00,
2013-07-26 19:23:00,53.8,51.0,29.98,NW,316,3.0,-999.0,91,-99.99,,,0.00,weatherlink.com 1.10,2013-07-27 02:23:00,
2013-07-26 19:38:00,53.5,51.0,29.98,NW,315,3.0,-999.0,92,-99.99,,,0.00,weatherlink.com 1.10,2013-07-27 02:38:00,
2013-07-26 19:53:00,53.3,51.0,29.98,NW,316,5.0,-999.0,92,-99.99,,,0.00,weatherlink.com 1.10,2013-07-27 02:53:00,
2013-07-26 20:07:00,53.2,51.0,29.98,NNW,345,2.0,-999.0,93,-99.99,,,0.00,weatherlink.com 1.10,2013-07-27 03:07:00,
2013-07-26 20:23:00,53.1,51.0,29.98,NNW,337,3.0,-999.0,93,-99.99,,,0.00,weatherlink.com 1.10,2013-07-27 03:23:00,
2013-07-26 20:37:00,52.8,51.0,29.98,NNW,330,1.0,-999.0,93,-99.99,,,0.00,weatherlink.com 1.10,2013-07-27 03:37:00,
2013-07-26 20:53:00,52.7,51.0,29.98,NNW,331,3.0,-999.0,94,-99.99,,,0.00,weatherlink.com 1.10,2013-07-27 03:53:00,
2013-07-26 21:07:00,52.7,51.0,29.98,NNW,331,0.0,-999.0,94,-99.99,,,0.00,weatherlink.com 1.10,2013-07-27 04:07:00,
2013-07-26 21:23:00,52.7,51.0,29.98,NNW,331,3.0,-999.0,94,-99.99,,,0.00,weatherlink.com 1.10,2013-07-27 04:23:00,
2013-07-26 21:38:00,52.6,51.0,29.99,NNW,328,2.0,-999.0,94,-99.99,,,0.00,weatherlink.com 1.10,2013-07-27 04:38:00,
2013-07-26 21:54:00,52.5,51.0,29.99,NNW,327,1.0,-999.0,94,-99.99,,,0.00,weatherlink.com 1.10,2013-07-27 04:54:00,
2013-07-26 22:08:00,52.6,51.0,29.99,NNW,333,4.0,-999.0,95,-99.99,,,0.00,weatherlink.com 1.10,2013-07-27 05:08:00,
2013-07-26 22:24:00,52.4,51.0,29.99,NW,321,3.0,-999.0,95,-99.99,,,0.00,weatherlink.com 1.10,2013-07-27 05:24:00,
2013-07-26 22:38:00,52.2,51.0,29.99,NW,319,0.0,-999.0,95,-99.99,,,0.00,weatherlink.com 1.10,2013-07-27 05:38:00,
2013-07-26 22:52:00,52.1,51.0,29.99,NW,319,2.0,-999.0,95,-99.99,,,0.00,weatherlink.com 1.10,2013-07-27 05:52:00,
2013-07-26 23:08:00,51.9,51.0,29.98,NW,321,2.0,-999.0,95,-99.99,,,0.00,weatherlink.com 1.10,2013-07-27 06:08:00,
2013-07-26 23:23:00,51.8,51.0,29.98,NW,321,0.0,-999.0,95,-99.99,,,0.00,weatherlink.com 1.10,2013-07-27 06:23:00,
2013-07-26 23:38:00,51.7,50.0,29.98,NW,321,3.0,-999.0,95,-99.99,,,0.00,weatherlink.com 1.10,2013-07-27 06:38:00,
2013-07-26 23:53:00,51.7,50.0,29.98,NW,321,1.0,-999.0,95,-99.99,,,0.00,weatherlink.com 1.10,2013-07-27 06:53:00,